Time,TemperatureF,DewpointF,PressureIn,WindDirection,WindDirectionDegrees,WindSpeedMPH,WindSpeedGustMPH,Humidity,HourlyPrecipIn,Conditions,Clouds,dailyrainin,SoftwareType,DateUTC
2013-07-01 00:00:00,83.5,77.1,29.86,East,86,3.0,8.0,81,0.00,CLR,,0.00,WeatherDisplay:10.37,2013-07-01 06:00:00,
2013-07-01 00:15:00,83.4,77.0,29.86,East,84,3.0,8.0,81,0.00,CLR,,0.00,WeatherDisplay:10.37,2013-07-01 06:15:00,
2013-07-01 00:30:00,83.4,77.0,29.85,East,87,1.0,7.0,81,0.00,CLR,,0.00,WeatherDisplay:10.37,2013-07-01 06:30:00,
2013-07-01 00:45:00,83.3,76.9,29.85,ENE,74,2.0,6.0,81,0.00,CLR,,0.00,WeatherDisplay:10.37,2013-07-01 06:45:00,
2013-07-01 01:00:00,83.3,77.3,29.85,East,88,1.0,7.0,82,0.00,CLR,,0.00,WeatherDisplay:10.37,2013-07-01 07:00:00,
2013-07-01 01:15:00,83.3,76.9,29.85,East,92,2.0,7.0,81,0.00,CLR,,0.00,WeatherDisplay:10.37,2013-07-01 07:15:00,
2013-07-01 01:30:00,83.3,77.2,29.85,ESE,109,2.0,5.0,82,0.00,CLR,,0.00,WeatherDisplay:10.37,2013-07-01 07:30:00,
2013-07-01 01:45:00,83.2,77.1,29.85,East,95,1.0,6.0,82,0.00,CLR,,0.00,WeatherDisplay:10.37,2013-07-01 07:45:00,
2013-07-01 02:00:00,83.2,77.1,29.85,ESE,111,1.0,5.0,82,0.00,CLR,,0.00,WeatherDisplay:10.37,2013-07-01 08:00:00,
2013-07-01 02:15:00,83.1,77.4,29.85,East,86,1.0,3.0,83,0.00,CLR,,0.00,WeatherDisplay:10.37,2013-07-01 08:15:00,
2013-07-01 02:30:00,83.0,77.7,29.85,East,101,2.0,3.0,84,0.00,CLR,,0.00,WeatherDisplay:10.37,2013-07-01 08:30:00,
2013-07-01 02:45:00,83.2,77.5,29.85,ESE,115,2.0,5.0,83,0.00,CLR,,0.00,WeatherDisplay:10.37,2013-07-01 08:45:00,
2013-07-01 03:00:00,83.1,77.8,29.85,ESE,112,3.0,6.0,84,0.00,CLR,,0.00,WeatherDisplay:10.37,2013-07-01 09:00:00,
2013-07-01 03:15:00,83.0,77.6,29.84,ESE,111,0.0,6.0,84,0.00,CLR,,0.00,WeatherDisplay:10.37,2013-07-01 09:15:00,
2013-07-01 03:30:00,82.8,77.5,29.84,ESE,110,1.0,3.0,84,0.00,CLR,,0.00,WeatherDisplay:10.37,2013-07-01 09:30:00,
2013-07-01 03:45:00,82.6,77.3,29.84,East,96,1.0,5.0,84,0.00,CLR,,0.00,WeatherDisplay:10.37,2013-07-01 09:45:00,
2013-07-01 04:00:00,82.3,77.0,29.84,East,88,0.0,2.0,84,0.00,CLR,,0.00,WeatherDisplay:10.37,2013-07-01 10:00:00,
2013-07-01 04:15:00,82.1,77.1,29.84,East,97,0.0,2.0,85,0.00,CLR,,0.00,WeatherDisplay:10.37,2013-07-01 10:15:00,
2013-07-01 04:30:00,82.0,77.0,29.84,East,95,0.0,3.0,85,0.00,CLR,,0.00,WeatherDisplay:10.37,2013-07-01 10:30:00,
2013-07-01 04:45:00,81.9,76.9,29.84,East,95,0.0,1.0,85,0.00,CLR,,0.00,WeatherDisplay:10.37,2013-07-01 10:45:00,
2013-07-01 05:00:00,81.8,77.2,29.85,East,97,1.0,2.0,86,0.00,CLR,,0.00,WeatherDisplay:10.37,2013-07-01 11:00:00,
2013-07-01 05:15:00,81.6,77.0,29.85,East,98,0.0,1.0,86,0.00,CLR,,0.00,WeatherDisplay:10.37,2013-07-01 11:15:00,
2013-07-01 05:30:00,81.6,77.0,29.85,East,83,0.0,2.0,86,0.00,CLR,,0.00,WeatherDisplay:10.37,2013-07-01 11:30:00,
2013-07-01 05:45:00,81.8,77.2,29.86,East,84,0.0,3.0,86,0.00,CLR,,0.00,WeatherDisplay:10.37,2013-07-01 11:45:00,
2013-07-01 06:00:00,82.1,77.5,29.86,ENE,67,1.0,3.0,86,0.00,CLR,,0.00,WeatherDisplay:10.37,2013-07-01 12:00:00,
2013-07-01 06:15:00,82.2,78.3,29.87,NNE,14,0.0,5.0,88,0.00,CLR,,0.00,WeatherDisplay:10.37,2013-07-01 12:15:00,
2013-07-01 06:30:00,82.5,78.6,29.87,North,1,3.0,6.0,88,0.00,CLR,,0.00,WeatherDisplay:10.37,2013-07-01 12:30:00,
2013-07-01 06:45:00,82.8,78.9,29.87,North,357,2.0,6.0,88,0.00,CLR,,0.00,WeatherDisplay:10.37,2013-07-01 12:45:00,
2013-07-01 07:00:00,83.3,79.0,29.88,NNE,33,3.0,7.0,87,0.00,CLR,,0.00,WeatherDisplay:10.37,2013-07-01 13:00:00,
2013-07-01 07:15:00,84.7,79.0,29.89,NNE,28,2.0,10.0,83,0.00,CLR,,0.00,WeatherDisplay:10.37,2013-07-01 13:15:00,
2013-07-01 07:30:00,85.4,78.9,29.89,NNE,25,3.0,9.0,81,0.00,CLR,,0.00,WeatherDisplay:10.37,2013-07-01 13:30:00,
2013-07-01 07:45:00,86.1,79.2,29.89,NE,44,5.0,9.0,80,0.00,CLR,,0.00,WeatherDisplay:10.37,2013-07-01 13:45:00,
2013-07-01 08:00:00,86.6,79.0,29.90,NE,42,3.0,9.0,78,0.00,CLR,,0.00,WeatherDisplay:10.37,2013-07-01 14:00:00,
2013-07-01 08:15:00,87.5,79.8,29.90,NE,44,3.0,9.0,78,0.00,CLR,,0.00,WeatherDisplay:10.37,2013-07-01 14:15:00,
2013-07-01 08:30:00,87.6,79.5,29.90,NE,46,2.0,9.0,77,0.00,CLR,,0.00,WeatherDisplay:10.37,2013-07-01 14:30:00,
2013-07-01 08:45:00,87.2,79.5,29.90,NE,39,2.0,9.0,78,0.00,CLR,,0.00,WeatherDisplay:10.37,2013-07-01 14:45:00,
2013-07-01 09:00:00,87.8,79.7,29.91,ENE,59,2.0,12.0,77,0.00,CLR,,0.00,WeatherDisplay:10.37,2013-07-01 15:00:00,
2013-07-01 09:15:00,88.0,79.5,29.90,ENE,63,5.0,8.0,76,0.00,CLR,,0.00,WeatherDisplay:10.37,2013-07-01 15:15:00,
2013-07-01 09:30:00,88.2,79.7,29.90,ENE,64,3.0,8.0,76,0.00,CLR,,0.00,WeatherDisplay:10.37,2013-07-01 15:30:00,
2013-07-01 09:45:00,88.6,79.2,29.90,ENE,71,3.0,8.0,74,0.00,CLR,,0.00,WeatherDisplay:10.37,2013-07-01 15:45:00,
2013-07-01 10:00:00,88.5,80.0,29.90,ENE,76,1.0,8.0,76,0.00,CLR,,0.00,WeatherDisplay:10.37,2013-07-01 16:00:00,
2013-07-01 10:15:00,89.2,80.2,29.90,East,80,3.0,9.0,75,0.00,CLR,,0.00,WeatherDisplay:10.37,2013-07-01 16:15:00,
2013-07-01 10:30:00,88.6,80.1,29.90,ENE,78,3.0,8.0,76,0.00,CLR,,0.00,WeatherDisplay:10.37,2013-07-01 16:30:00,
2013-07-01 10:45:00,89.2,80.6,29.90,East,79,3.0,10.0,76,0.00,CLR,,0.00,WeatherDisplay:10.37,2013-07-01 16:45:00,
2013-07-01 11:00:00,88.1,78.3,29.89,ENE,76,7.0,14.0,73,0.00,CLR,,0.00,WeatherDisplay:10.37,2013-07-01 17:00:00,
2013-07-01 11:15:00,88.0,77.0,29.89,ENE,61,6.0,14.0,70,0.00,CLR,,0.00,WeatherDisplay:10.37,2013-07-01 17:15:00,
2013-07-01 11:30:00,89.0,76.6,29.89,NNE,33,7.0,13.0,67,0.00,CLR,,0.00,WeatherDisplay:10.37,2013-07-01 17:30:00,
2013-07-01 11:45:00,89.5,78.4,29.88,NE,50,2.0,13.0,70,0.00,CLR,,0.00,WeatherDisplay:10.37,2013-07-01 17:45:00,
2013-07-01 12:00:00,89.4,78.7,29.87,East,82,3.0,9.0,71,0.00,CLR,,0.00,WeatherDisplay:10.37,2013-07-01 18:00:00,
2013-07-01 12:15:00,89.0,79.3,29.87,East,86,6.0,8.0,73,0.00,CLR,,0.00,WeatherDisplay:10.37,2013-07-01 18:15:00,
2013-07-01 12:30:00,89.0,79.2,29.87,ENE,71,5.0,9.0,73,0.00,CLR,,0.00,WeatherDisplay:10.37,2013-07-01 18:30:00,
2013-07-01 12:45:00,87.8,78.8,29.87,ENE,78,3.0,9.0,75,0.00,CLR,,0.00,WeatherDisplay:10.37,2013-07-01 18:45:00,
2013-07-01 13:00:00,87.2,79.5,29.86,East,90,5.0,9.0,78,0.00,CLR,,0.00,WeatherDisplay:10.37,2013-07-01 19:00:00,
2013-07-01 13:15:00,87.2,79.1,29.86,East,93,6.0,9.0,77,0.00,CLR,,0.00,WeatherDisplay:10.37,2013-07-01 19:15:00,
2013-07-01 13:30:00,88.2,79.6,29.86,ENE,78,6.0,9.0,76,0.00,CLR,,0.00,WeatherDisplay:10.37,2013-07-01 19:30:00,
2013-07-01 13:45:00,88.1,79.6,29.86,East,98,6.0,10.0,76,0.00,CLR,,0.00,WeatherDisplay:10.37,2013-07-01 19:45:00,
2013-07-01 14:00:00,87.9,79.4,29.85,East,99,3.0,10.0,76,0.00,CLR,,0.00,WeatherDisplay:10.37,2013-07-01 20:00:00,
2013-07-01 14:15:00,87.4,78.9,29.85,East,89,5.0,9.0,76,0.00,CLR,,0.00,WeatherDisplay:10.37,2013-07-01 20:15:00,
2013-07-01 14:30:00,86.4,78.7,29.84,East,85,5.0,9.0,78,0.00,CLR,,0.00,WeatherDisplay:10.37,2013-07-01 20:30:00,
2013-07-01 14:45:00,86.2,78.9,29.84,East,89,3.0,10.0,79,0.00,CLR,,0.00,WeatherDisplay:10.37,2013-07-01 20:45:00,
2013-07-01 15:00:00,85.8,78.5,29.84,East,96,5.0,9.0,79,0.00,CLR,,0.00,WeatherDisplay:10.37,2013-07-01 21:00:00,
2013-07-01 15:15:00,85.4,78.5,29.84,East,100,6.0,10.0,80,0.00,CLR,,0.00,WeatherDisplay:10.37,2013-07-01 21:15:00,
2013-07-01 15:30:00,85.3,78.1,29.83,East,91,3.0,10.0,79,0.00,CLR,,0.00,WeatherDisplay:10.37,2013-07-01 21:30:00,
2013-07-01 15:45:00,85.1,79.0,29.83,East,94,6.0,13.0,82,0.00,CLR,,0.00,WeatherDisplay:10.37,2013-07-01 21:45:00,
2013-07-01 16:00:00,85.0,79.3,29.82,East,95,5.0,12.0,83,0.00,CLR,,0.00,WeatherDisplay:10.37,2013-07-01 22:00:00,
2013-07-01 16:15:00,84.8,79.5,29.82,ESE,103,5.0,10.0,84,0.00,CLR,,0.00,WeatherDisplay:10.37,2013-07-01 22:15:00,
2013-07-01 16:26:00,84.8,79.8,29.81,ESE,107,5.0,9.0,85,0.00,CLR,,0.00,WeatherDisplay:10.37,2013-07-01 22:26:00,
2013-07-01 16:45:00,84.5,78.4,29.82,East,88,7.0,10.0,82,0.00,CLR,,0.00,WeatherDisplay:10.37,2013-07-01 22:45:00,
2013-07-01 17:00:00,84.4,78.3,29.83,East,92,8.0,10.0,82,0.00,CLR,,0.00,WeatherDisplay:10.37,2013-07-01 23:00:00,
2013-07-01 17:15:00,84.5,78.4,29.83,East,81,6.0,10.0,82,0.00,CLR,,0.00,WeatherDisplay:10.37,2013-07-01 23:15:00,
2013-07-01 17:30:00,84.6,78.1,29.84,East,88,7.0,12.0,81,0.00,CLR,,0.00,WeatherDisplay:10.37,2013-07-01 23:30:00,
2013-07-01 17:45:00,84.5,77.7,29.84,East,84,5.0,12.0,80,0.00,CLR,,0.00,WeatherDisplay:10.37,2013-07-01 23:45:00,
2013-07-01 18:00:00,84.5,78.4,29.85,East,84,5.0,12.0,82,0.00,CLR,,0.00,WeatherDisplay:10.37,2013-07-02 00:00:00,
2013-07-01 18:15:00,84.2,78.5,29.85,ENE,78,9.0,13.0,83,0.00,CLR,,0.00,WeatherDisplay:10.37,2013-07-02 00:15:00,
2013-07-01 18:30:00,84.3,78.2,29.86,East,84,8.0,13.0,82,0.00,CLR,,0.00,WeatherDisplay:10.37,2013-07-02 00:30:00,
2013-07-01 18:45:00,84.3,77.5,29.86,East,93,9.0,14.0,80,0.00,CLR,,0.00,WeatherDisplay:10.37,2013-07-02 00:45:00,
2013-07-01 19:00:00,84.2,78.8,29.87,East,84,10.0,13.0,84,0.00,CLR,,0.00,WeatherDisplay:10.37,2013-07-02 01:00:00,
2013-07-01 19:15:00,84.1,79.1,29.87,East,94,6.0,13.0,85,0.00,CLR,,0.00,WeatherDisplay:10.37,2013-07-02 01:15:00,
2013-07-01 19:30:00,84.1,79.1,29.88,East,95,8.0,12.0,85,0.00,CLR,,0.00,WeatherDisplay:10.37,2013-07-02 01:30:00,
2013-07-01 19:45:00,84.1,78.7,29.89,ESE,102,6.0,13.0,84,0.00,CLR,,0.00,WeatherDisplay:10.37,2013-07-02 01:45:00,
2013-07-01 20:00:00,84.3,79.3,29.89,ESE,119,5.0,10.0,85,0.00,CLR,,0.00,WeatherDisplay:10.37,2013-07-02 02:00:00,
2013-07-01 20:15:00,84.0,79.4,29.89,East,99,5.0,13.0,86,0.00,CLR,,0.00,WeatherDisplay:10.37,2013-07-02 02:15:00,
2013-07-01 20:30:00,83.9,79.3,29.90,ESE,112,3.0,12.0,86,0.00,CLR,,0.00,WeatherDisplay:10.37,2013-07-02 02:30:00,
2013-07-01 20:45:00,83.9,78.9,29.90,ESE,107,8.0,13.0,85,0.00,CLR,,0.00,WeatherDisplay:10.37,2013-07-02 02:45:00,
2013-07-01 21:00:00,84.1,79.4,29.90,ESE,112,9.0,13.0,86,0.00,CLR,,0.00,WeatherDisplay:10.37,2013-07-02 03:00:00,
2013-07-01 21:15:00,83.9,79.6,29.90,ESE,117,12.0,15.0,87,0.00,CLR,,0.00,WeatherDisplay:10.37,2013-07-02 03:15:00,
2013-07-01 21:30:00,83.9,78.9,29.91,ESE,111,10.0,14.0,85,0.00,CLR,,0.00,WeatherDisplay:10.37,2013-07-02 03:30:00,
2013-07-01 21:45:00,84.1,79.5,29.91,ESE,114,10.0,16.0,86,0.00,CLR,,0.00,WeatherDisplay:10.37,2013-07-02 03:45:00,
2013-07-01 22:00:00,83.9,78.5,29.91,ESE,122,12.0,13.0,84,0.00,CLR,,0.00,WeatherDisplay:10.37,2013-07-02 04:00:00,
2013-07-01 22:15:00,84.0,79.0,29.91,ESE,115,13.0,15.0,85,0.00,CLR,,0.00,WeatherDisplay:10.37,2013-07-02 04:15:00,
2013-07-01 22:30:00,83.8,78.5,29.91,ESE,116,13.0,16.0,84,0.00,CLR,,0.00,WeatherDisplay:10.37,2013-07-02 04:30:00,
2013-07-01 22:45:00,83.9,78.5,29.91,ESE,117,10.0,15.0,84,0.00,CLR,,0.00,WeatherDisplay:10.37,2013-07-02 04:45:00,
2013-07-01 23:00:00,83.8,78.4,29.91,ESE,116,10.0,15.0,84,0.00,CLR,,0.00,WeatherDisplay:10.37,2013-07-02 05:00:00,
2013-07-01 23:15:00,83.9,78.9,29.91,ESE,116,10.0,15.0,85,0.00,CLR,,0.00,WeatherDisplay:10.37,2013-07-02 05:15:00,
2013-07-01 23:30:00,83.7,78.3,29.91,ESE,118,10.0,13.0,84,0.00,CLR,,0.00,WeatherDisplay:10.37,2013-07-02 05:30:00,
2013-07-01 23:45:00,83.7,78.0,29.90,ESE,119,12.0,15.0,83,0.00,CLR,,0.00,WeatherDisplay:10.37,2013-07-02 05:45:00,